Temperature
20 21 22 22 22 20 20 19 19 20 19 20 19 19 19 20 20 20 20 20 20 20 20 20 20 20 20 20 19 19 19 19 19 18 18 17 17 17 17 16 16 16 16 16
21 21 21 21 21 21 20 20 20 20 19 18 18 19 19 19 19 20 20 20 20 20 20 20 20 20 20 19 19 19 19 19 18 18 17 17 17 17 16 16 16 16 15 15
19 20 21 20 20 20 20 19 19 19 19 18 18 18 18 19 19 19 20 20 20 20 20 20 20 19 19 19 19 18 18 18 18 17 17 17 16 16 16 16 16 15 15 15
17 20 21 20 20 20 19 19 18 18 18 18 18 18 19 20 20 20 20 20 20 20 20 20 19 19 19 18 18 18 18 17 17 17 17 16 16 16 16 15 15 15 15 15
15 18 19 19 19 19 19 19 18 18 17 18 18 18 18 19 19 20 20 20 20 20 19 19 19 18 18 18 18 17 17 17 17 16 16 16 16 16 15 15 15 15 14 14
15 18 18 19 19 19 19 18 18 17 17 17 17 17 17 19 19 19 19 19 19 19 19 19 18 18 18 18 17 17 17 17 16 16 16 16 15 15 15 15 14 14 14 14
15 17 17 18 18 19 19 18 18 18 18 17 17 17 18 19 19 19 19 19 19 19 18 18 18 18 18 17 17 17 17 16 16 16 16 15 15 15 14 14 14 14 14 13
14 16 17 17 17 17 17 18 18 18 18 18 18 18 18 18 18 18 18 18 18 18 18 18 18 17 17 17 17 16 16 16 16 15 15 15 14 14 14 14 13 13 13 13
14 15 16 16 17 18 18 18 18 18 18 18 17 17 17 18 18 18 18 18 18 17 17 17 17 17 17 16 16 16 16 15 15 15 15 14 14 14 13 13 13 13 13 13
14 14 15 16 17 18 18 18 18 18 18 18 17 17 17 17 17 17 17 17 17 17 17 17 16 16 16 16 16 15 15 15 15 14 14 14 13 13 13 13 13 13 12 12
13 14 15 16 17 17 18 18 18 18 18 17 17 17 17 17 17 17 17 17 16 16 16 16 15 15 16 15 15 15 15 15 14 14 14 13 13 13 13 13 13 12 12 12
14 14 14 15 17 17 17 17 17 17 17 17 17 17 17 16 16 16 16 16 16 16 15 15 15 15 15 15 15 14 14 14 14 13 13 13 13 13 13 12 12 12 12 12
16 16 16 16 16 16 16 17 17 17 17 16 16 16 16 16 16 15 15 15 15 15 15 15 15 14 14 14 14 14 14 13 13 13 13 13 12 12 12 12 12 12 12 12
16 16 15 15 15 16 16 16 16 16 16 16 16 16 15 15 15 15 15 15 15 15 15 14 14 14 14 14 14 13 13 13 13 12 12 12 12 12 12 12 12 12 12 11
15 15 15 15 15 15 15 15 15 15 15 15 15 15 15 15 14 14 14 14 14 14 14 14 14 14 14 13 13 13 13 13 12 12 12 12 11 11 11 11 11 11 11 11
14 15 15 15 15 15 15 15 14 14 15 15 15 15 14 14 14 14 14 14 14 14 14 14 14 14 13 13 13 13 12 12 12 12 12 11 11 11 11 11 11 11 11 11
14 14 14 14 14 14 14 14 14 14 14 14 14 14 14 14 14 14 13 13 13 13 13 13 13 13 13 13 12 12 12 12 11 11 11 11 11 11 11 10 10 10 10 10
14 14 14 14 14 13 13 14 14 14 14 14 13 13 13 13 13 13 13 13 13 13 13 13 13 12 12 12 12 12 12 11 11 11 11 11 11 10 10 10 10 10 10 10
13 13 13 13 13 13 13 13 13 13 13 13 13 13 13 13 13 13 13 12 13 13 12 12 12 12 12 12 11 11 11 11 11 11 11 10 10 10 10 10 10 10 10 10
13 13 13 13 13 13 13 13 13 13 13 13 13 12 12 12 12 12 12 12 12 12 12 12 11 11 11 11 11 11 11 11 10 10 10 10 10 10 10 10 10 9 9 9
13 13 13 12 12 12 12 12 12 12 12 12 12 12 12 12 12 11 11 11 11 11 11 11 11 11 11 11 11 11 10 10 10 10 10 10 9 9 9 9 9 9 9 9
12 12 12 12 12 12 12 12 12 12 12 12 12 11 11 11 11 11 11 11 11 11 11 10 10 10 10 10 10 10 10 10 9 9 9 9 9 9 9 9 9 9 9 9
12 12 12 12 12 12 12 12 12 12 12 11 11 11 11 11 11 11 10 10 10 10 10 10 10 10 10 10 10 10 9 9 9 9 9 9 9 9 9 8 8 8 8 8
12 11 11 11 11 11 11 11 11 11 11 11 11 11 11 10 10 10 10 10 10 10 10 10 10 9 9 9 9 9 9 9 9 9 9 9 9 8 8 8 8 8 8 8
11 11 11 11 11 11 11 11 11 11 11 10 10 10 10 10 10 10 10 10 10 10 10 9 9 9 9 9 9 9 9 9 9 9 8 8 8 8 8 8 8 8 7 7
11 11 11 11 11 11 11 10 10 10 10 10 10 10 10 10 10 10 10 10 10 9 9 9 9 9 9 9 9 9 9 8 8 8 8 8 8 8 8 8 8 7 7 7
11 11 11 10 10 10 10 10 10 10 10 10 10 9 9 9 9 9 9 9 9 9 9 9 9 9 9 9 9 8 8 8 8 8 8 8 8 8 8 7 7 7 7 7
Wind_Speed
4 3 3 2 2 3 4 6 7 7 7 7 5 3 2 1 1 2 1 2 2 3 3 3 3 3 4 4 4 5 5 5 5 5 4 3 3 2 2 2 3 3 3 2
1 1 2 1 0 2 2 2 3 2 4 4 3 1 1 1 1 2 2 2 2 3 3 3 4 4 4 4 4 5 5 5 4 3 3 3 3 2 2 2 1 1 2 2
2 2 3 1 3 3 2 1 4 4 5 2 1 1 2 2 2 3 2 2 3 3 3 3 3 4 4 4 3 4 4 4 3 3 3 3 2 2 2 2 2 1 2 2
2 2 3 6 2 3 4 1 2 3 3 2 2 2 1 1 2 2 2 2 2 2 2 1 2 2 2 3 3 3 2 2 2 3 3 3 3 2 2 2 2 2 2 2
4 3 3 4 2 2 3 2 1 2 1 0 1 2 2 1 0 2 2 2 2 2 2 2 2 2 3 3 3 3 3 3 3 4 4 4 3 3 3 2 2 2 2 3
4 4 6 6 3 1 4 2 2 2 2 1 3 1 4 3 0 1 1 1 2 2 3 3 2 3 4 3 2 3 3 4 3 4 4 4 4 3 3 3 3 2 2 2
4 4 6 5 4 2 4 5 3 3 3 2 3 4 3 1 1 1 1 1 2 3 2 2 2 3 3 2 2 2 1 1 1 2 3 3 2 2 2 2 2 1 2 2
4 3 6 3 2 4 5 2 0 1 1 1 1 1 0 0 1 1 1 2 3 3 3 2 2 3 2 1 1 0 1 2 1 1 1 1 2 1 1 1 1 1 2 3
6 6 4 2 2 2 3 2 1 1 1 1 1 1 1 0 1 1 1 2 2 4 3 1 1 3 3 1 0 2 2 1 1 0 0 1 2 2 1 1 2 2 2 3
1 3 3 2 1 1 2 2 1 1 1 2 1 1 0 0 0 1 1 2 2 4 3 1 0 1 1 1 1 2 2 1 1 1 1 1 1 2 3 3 3 3 3 3
2 3 2 3 2 2 1 2 2 2 1 1 2 1 1 1 1 1 1 1 2 3 2 2 1 0 0 1 2 2 1 1 1 1 2 2 2 3 4 4 5 5 4 4
5 5 4 4 3 1 1 1 1 1 2 1 1 2 1 1 1 1 1 1 2 2 1 1 1 1 1 1 2 2 1 1 1 1 1 1 1 2 2 2 4 5 5 4
5 3 3 3 2 1 0 1 0 0 1 1 0 2 2 1 0 0 1 1 2 2 1 1 1 2 3 2 2 2 3 2 2 2 2 2 2 2 2 3 2 2 4 5
2 1 0 2 2 1 0 0 1 2 1 1 1 2 2 1 0 0 1 1 1 1 1 1 2 3 3 2 2 2 2 2 2 2 2 3 3 3 2 2 3 3 3 4
2 2 4 2 1 0 1 2 2 2 1 2 1 1 1 1 1 2 2 0 1 0 1 1 2 4 3 1 2 2 2 2 2 2 2 3 3 3 3 3 3 3 3 3
1 1 2 2 1 1 1 1 1 1 1 0 0 1 1 1 1 1 1 0 0 2 2 2 3 4 3 1 2 2 2 3 2 2 2 2 2 3 3 3 3 3 3 3
3 2 2 1 2 1 1 2 3 3 2 2 2 2 1 1 1 1 2 2 2 2 3 2 3 3 3 2 2 2 2 2 2 2 3 3 3 4 4 4 4 4 4 4
5 6 6 6 5 3 2 2 2 2 3 2 1 0 0 1 2 3 3 2 1 2 3 3 2 2 2 2 2 2 2 2 2 2 3 3 3 4 4 4 4 5 4 3
4 5 5 4 4 4 4 4 3 3 3 2 2 2 2 2 2 3 2 1 1 3 4 3 3 2 2 2 1 1 2 2 2 2 2 3 3 3 3 3 4 4 4 3
3 4 4 3 3 3 4 4 3 3 2 2 2 1 1 2 2 2 2 2 3 4 3 3 2 2 2 2 2 1 1 2 2 3 3 3 3 3 3 3 4 4 3 4
3 3 3 3 2 2 3 3 3 3 3 2 3 3 3 2 2 1 1 3 4 3 2 2 1 2 2 2 2 1 2 2 3 3 3 3 3 3 3 3 3 3 4 4
2 2 3 2 2 2 2 2 3 3 3 2 3 3 2 2 1 1 2 3 4 3 2 2 2 3 3 2 1 2 2 3 3 3 3 3 3 3 3 4 4 4 4 4
2 3 2 2 3 2 1 1 2 2 3 3 3 3 3 3 2 2 3 3 3 3 3 3 4 4 3 2 2 2 3 3 3 3 3 3 3 3 3 4 3 3 3 3
2 2 2 2 2 2 1 1 1 1 2 2 2 3 3 2 2 3 3 4 4 4 3 4 5 5 3 2 2 2 3 3 3 3 3 3 3 3 3 3 3 3 3 3
1 2 2 2 1 1 2 1 0 0 0 0 1 2 2 3 3 3 2 3 4 3 3 4 5 4 3 2 2 3 3 3 3 3 3 2 2 2 3 3 3 3 3 3
1 1 1 1 2 1 1 1 1 1 1 1 1 2 2 1 1 2 2 2 3 3 3 3 3 3 2 3 3 3 3 3 3 3 3 3 3 3 3 3 3 3 3 3
1 1 1 1 0 1 1 2 2 2 2 2 2 2 2 1 1 2 2 3 3 3 3 3 3 3 3 3 3 3 3 3 3 3 3 3 2 3 4 4 3 3 3 3
Wind_Direction
220 216 166 171 168 159 170 180 182 219 224 257 270 260 274 278 124 107 87 107 130 145 151 155 160 170 176 179 174 168 168 178 191 199 198 194 195 208 213 221 233 241 245 258
356 33 131 96 51 161 186 175 193 207 248 271 291 27 0 316 162 155 161 169 162 161 162 167 179 185 180 182 183 174 176 191 194 184 187 195 194 198 210 223 236 244 256 258
233 307 65 291 256 192 177 195 174 209 240 261 354 308 256 241 203 197 196 187 180 187 194 185 189 192 195 191 175 175 184 191 190 187 190 205 202 196 221 231 236 253 271 274
142 91 212 239 249 153 147 180 202 213 234 203 209 249 280 229 204 218 209 211 200 182 190 184 170 168 166 152 158 173 189 198 191 186 195 199 191 197 234 241 236 244 256 269
127 165 264 287 266 178 172 248 245 184 229 274 68 54 348 310 237 232 210 188 184 167 150 132 130 137 131 133 155 175 199 211 209 198 197 196 198 203 216 222 242 254 260 263
127 155 220 242 272 248 129 262 260 184 193 170 83 50 279 300 20 60 73 105 116 101 93 97 110 120 120 141 167 201 218 218 211 198 193 196 206 211 219 215 232 247 266 273
149 191 249 261 286 101 152 245 253 213 223 206 204 216 239 284 35 112 114 118 115 107 98 109 120 119 124 141 211 241 229 178 178 188 193 198 207 220 212 206 217 250 287 305
147 174 244 289 99 154 210 255 172 199 222 202 255 320 32 134 102 105 97 102 113 108 90 74 114 126 128 189 242 103 106 111 131 213 217 185 178 208 191 181 205 250 276 298
186 208 243 275 202 208 160 145 166 146 0 114 53 339 331 340 99 89 102 125 126 122 107 79 104 133 144 233 117 110 113 130 167 209 243 192 190 194 194 207 218 241 252 270
243 264 275 291 303 51 144 146 148 133 127 118 136 174 221 346 70 104 106 123 123 119 122 138 273 162 179 189 140 125 135 168 185 190 234 262 231 212 209 215 224 232 246 258
248 270 321 321 326 337 45 58 53 33 34 148 139 151 167 196 228 203 174 134 127 137 157 185 196 246 261 174 141 138 162 190 207 220 228 244 254 243 232 227 220 222 232 234
220 222 196 246 275 304 62 22 52 33 351 347 146 168 172 198 220 188 170 147 143 156 174 202 183 226 260 216 168 162 194 226 237 244 242 240 252 303 304 263 246 232 228 227
223 223 205 247 281 290 249 290 3 76 190 257 75 144 150 180 220 213 175 185 192 191 193 204 214 238 248 230 202 196 210 223 238 247 242 234 232 239 283 314 309 266 249 242
218 165 263 271 264 297 313 26 45 35 29 127 131 116 119 106 48 329 259 245 210 175 214 234 229 250 257 221 197 208 217 225 225 233 238 237 236 241 244 258 286 300 290 261
270 212 210 226 195 76 96 84 60 22 33 43 84 114 122 132 252 276 284 279 106 30 311 297 280 279 276 215 199 218 222 227 224 229 236 244 248 249 252 258 262 275 295 295
232 95 135 144 178 192 109 105 140 228 243 239 227 236 240 217 239 297 307 287 188 266 279 286 285 284 283 245 230 243 245 243 230 228 241 250 255 253 254 254 258 261 263 268
163 191 180 191 212 222 217 209 200 212 223 230 246 257 269 331 354 302 286 279 251 262 268 266 273 289 291 260 228 240 248 255 248 244 244 246 246 246 248 249 253 258 257 244
205 209 203 194 197 209 238 231 211 217 228 234 234 199 221 236 256 270 282 306 328 322 304 284 278 291 297 285 262 255 246 246 249 254 259 259 257 252 250 253 257 260 268 263
218 213 215 213 204 201 213 219 224 224 227 208 196 220 241 253 258 263 272 285 275 285 292 297 299 303 296 294 295 272 280 283 284 282 271 264 263 260 257 256 256 255 256 260
219 209 207 216 219 206 205 211 209 215 228 207 199 214 267 279 276 270 262 266 261 257 266 287 302 304 299 301 311 285 275 274 280 287 283 273 270 272 270 267 264 260 257 257
213 207 200 199 206 210 206 202 196 214 233 204 195 214 235 262 277 266 259 286 293 299 293 286 289 292 293 294 307 292 271 269 272 274 273 271 268 269 274 276 273 271 269 265
205 189 187 175 172 205 221 198 193 205 221 220 214 212 219 252 274 282 256 246 268 289 295 283 284 277 284 295 289 271 265 265 268 270 269 266 262 266 275 278 274 272 271 268
176 169 170 175 180 190 215 214 202 205 217 222 220 217 220 234 235 234 272 276 280 285 286 275 274 276 286 291 276 271 272 272 269 267 263 259 260 260 263 270 275 278 277 271
147 144 157 167 152 146 187 250 249 233 223 233 231 220 210 226 267 261 249 265 274 279 276 272 273 275 280 269 268 270 272 275 273 268 262 261 263 264 263 266 271 273 272 269
122 127 133 137 151 190 208 212 217 318 0 291 273 252 232 217 226 256 266 270 276 283 289 283 274 271 270 266 267 270 271 269 270 267 262 265 267 265 265 265 264 269 270 269
101 134 165 190 193 192 187 168 182 225 205 242 283 280 279 284 271 271 274 272 276 286 293 294 290 277 268 265 269 273 278 278 272 263 260 260 259 260 263 265 268 264 261 262
53 62 77 47 26 169 170 177 194 221 218 210 248 268 271 283 281 271 272 276 281 286 289 294 296 285 272 268 270 273 276 274 265 259 257 252 251 254 255 254 257 264 266 264
Height
1487 1483 1484 1486 1487 1490 1493 1497 1504 1499 1498 1489 1484 1483 1482 1482 1482 1482 1482 1483 1484 1485 1487 1489 1491 1493 1494 1496 1497 1498 1500 1501 1502 1504 1505 1505 1505 1505 1506 1506 1506 1506 1505 1504
1488 1484 1485 1487 1486 1487 1489 1490 1492 1492 1492 1484 1483 1483 1483 1482 1482 1482 1482 1483 1484 1485 1487 1488 1490 1491 1493 1494 1495 1496 1497 1498 1500 1501 1502 1502 1502 1502 1503 1503 1503 1503 1502 1502
1497 1489 1486 1496 1489 1487 1488 1488 1489 1492 1488 1483 1483 1482 1482 1481 1481 1481 1482 1482 1483 1484 1485 1487 1489 1490 1492 1493 1494 1495 1495 1496 1498 1499 1499 1500 1500 1500 1500 1500 1500 1499 1499 1499
1501 1495 1505 1494 1481 1481 1485 1486 1485 1484 1483 1482 1482 1481 1481 1481 1481 1480 1481 1482 1483 1484 1486 1486 1488 1490 1491 1492 1493 1493 1494 1495 1495 1496 1497 1497 1497 1497 1498 1497 1497 1497 1496 1496
1505 1506 1500 1489 1481 1482 1485 1486 1483 1483 1482 1481 1481 1480 1480 1480 1480 1480 1480 1481 1483 1484 1485 1486 1487 1489 1489 1490 1491 1492 1492 1493 1493 1494 1494 1495 1494 1495 1495 1495 1495 1494 1493 1493
1503 1503 1505 1489 1478 1477 1482 1488 1481 1481 1481 1481 1480 1485 1482 1479 1479 1479 1480 1481 1482 1483 1484 1485 1486 1487 1487 1487 1489 1489 1490 1491 1492 1492 1492 1492 1493 1493 1493 1493 1492 1492 1491 1490
1499 1500 1493 1481 1477 1477 1491 1489 1480 1479 1479 1480 1480 1480 1479 1478 1478 1478 1479 1480 1481 1482 1482 1484 1485 1485 1486 1486 1487 1488 1488 1488 1489 1490 1490 1490 1490 1490 1490 1490 1490 1489 1489 1488
1499 1500 1495 1477 1477 1481 1482 1478 1478 1478 1478 1478 1478 1478 1477 1478 1478 1478 1479 1479 1479 1480 1481 1483 1483 1484 1484 1485 1485 1486 1486 1486 1487 1488 1488 1488 1488 1488 1488 1487 1487 1486 1486 1485
1489 1488 1479 1476 1476 1477 1477 1477 1477 1477 1478 1477 1478 1477 1477 1477 1478 1478 1478 1478 1479 1479 1480 1481 1482 1483 1482 1483 1484 1484 1484 1485 1485 1486 1486 1486 1485 1485 1485 1484 1484 1483 1483 1482
1483 1479 1476 1475 1475 1475 1475 1476 1476 1477 1477 1477 1476 1477 1477 1477 1477 1477 1477 1477 1477 1478 1479 1480 1481 1481 1482 1482 1482 1483 1483 1483 1483 1484 1483 1483 1483 1483 1482 1482 1481 1480 1479 1479
1481 1477 1475 1474 1474 1474 1474 1474 1475 1475 1476 1477 1476 1476 1477 1477 1477 1477 1477 1477 1477 1477 1478 1479 1479 1480 1480 1481 1481 1481 1481 1481 1481 1481 1481 1480 1480 1480 1479 1479 1478 1477 1477 1476
1478 1474 1475 1474 1474 1474 1474 1474 1474 1475 1475 1476 1476 1476 1476 1476 1476 1476 1476 1476 1476 1477 1477 1478 1478 1478 1479 1479 1479 1479 1478 1478 1478 1478 1477 1476 1477 1476 1476 1476 1475 1475 1474 1474
1472 1472 1472 1472 1473 1473 1473 1473 1473 1474 1474 1474 1475 1476 1476 1475 1475 1475 1475 1475 1475 1476 1476 1476 1476 1476 1477 1477 1476 1476 1476 1475 1475 1475 1474 1474 1473 1473 1472 1472 1472 1471 1471 1470
1469 1470 1470 1470 1471 1472 1472 1472 1472 1473 1473 1474 1474 1475 1475 1475 1475 1475 1474 1474 1475 1475 1475 1475 1475 1475 1475 1474 1474 1473 1473 1473 1472 1472 1471 1471 1470 1469 1468 1468 1467 1466 1467 1466
1468 1468 1469 1469 1470 1470 1471 1471 1471 1471 1472 1472 1473 1474 1474 1473 1473 1474 1474 1473 1473 1473 1473 1473 1473 1472 1472 1472 1471 1470 1470 1470 1469 1468 1468 1468 1467 1466 1465 1465 1464 1463 1462 1462
1466 1466 1467 1468 1468 1469 1469 1470 1470 1470 1471 1471 1472 1472 1472 1472 1472 1472 1473 1472 1472 1471 1471 1471 1470 1470 1470 1469 1468 1468 1467 1466 1466 1465 1464 1464 1463 1462 1461 1461 1460 1459 1458 1458
1464 1464 1465 1466 1467 1467 1468 1469 1469 1469 1470 1470 1470 1470 1470 1470 1470 1470 1471 1470 1470 1470 1469 1469 1468 1468 1467 1466 1465 1465 1464 1463 1462 1462 1461 1460 1459 1459 1458 1457 1456 1455 1455 1455
1463 1463 1463 1464 1465 1466 1466 1467 1468 1468 1468 1469 1469 1469 1469 1468 1467 1468 1468 1468 1468 1467 1467 1466 1466 1465 1464 1464 1463 1462 1461 1460 1459 1458 1458 1457 1456 1455 1454 1454 1453 1452 1451 1451
1460 1460 1461 1462 1463 1463 1464 1465 1466 1466 1467 1467 1467 1467 1467 1466 1466 1466 1466 1465 1464 1464 1464 1463 1463 1462 1461 1461 1460 1459 1458 1457 1456 1455 1454 1454 1453 1452 1451 1450 1449 1448 1448 1447
1457 1457 1458 1459 1460 1460 1461 1462 1463 1464 1464 1464 1464 1464 1464 1464 1464 1464 1463 1462 1462 1461 1461 1460 1459 1459 1458 1458 1457 1456 1455 1454 1453 1452 1451 1450 1449 1448 1447 1446 1445 1444 1444 1443
1453 1454 1455 1456 1457 1458 1458 1459 1460 1461 1461 1462 1462 1461 1462 1462 1462 1461 1460 1460 1459 1459 1458 1457 1456 1456 1455 1454 1453 1452 1451 1450 1450 1449 1448 1447 1446 1445 1443 1442 1441 1440 1440 1439
1450 1451 1451 1453 1454 1455 1456 1457 1458 1458 1459 1459 1459 1459 1459 1459 1459 1459 1458 1458 1457 1456 1455 1455 1454 1453 1452 1451 1449 1448 1447 1447 1446 1445 1445 1443 1442 1441 1440 1439 1437 1436 1436 1435
1447 1448 1449 1451 1452 1453 1454 1455 1455 1456 1456 1456 1456 1456 1456 1456 1456 1456 1455 1455 1454 1453 1452 1452 1451 1450 1448 1447 1446 1445 1444 1443 1442 1442 1441 1440 1439 1437 1436 1435 1434 1433 1432 1431
1446 1447 1448 1449 1450 1451 1452 1452 1453 1453 1454 1454 1454 1454 1454 1454 1454 1454 1453 1452 1452 1451 1450 1449 1448 1447 1445 1444 1443 1442 1441 1440 1439 1439 1438 1436 1435 1434 1433 1432 1431 1430 1429 1428
1445 1446 1447 1448 1448 1449 1450 1450 1451 1451 1451 1452 1452 1452 1452 1451 1451 1451 1450 1450 1449 1448 1447 1446 1445 1444 1443 1441 1440 1439 1438 1437 1436 1435 1434 1433 1432 1431 1430 1429 1428 1427 1426 1425
1445 1445 1446 1447 1447 1448 1449 1449 1449 1449 1449 1449 1449 1449 1449 1449 1448 1448 1447 1446 1446 1445 1444 1443 1442 1441 1440 1438 1437 1436 1435 1434 1433 1432 1431 1430 1429 1428 1427 1426 1425 1424 1423 1422
1445 1445 1446 1446 1447 1447 1448 1448 1448 1448 1448 1448 1447 1447 1447 1446 1446 1445 1444 1443 1443 1442 1441 1440 1439 1438 1437 1436 1435 1434 1433 1431 1430 1429 1428 1427 1426 1425 1424 1423 1422 1421 1420 1419